Location: Ferchesar
(52.6477°N, 12.4298°E)
Time: 05:36:55
(UTC+02:00)

SR - Visible Passes

Search period start: 02 October 2022 00:00
Search period end: 12 October 2022 00:00
Orbit: 573 x 879 km, 66.7° (Epoch: 01 October)

Date Brightness Start Highest point End Pass type
(mag) Time Alt. Az. Time Alt. Az. Time Alt. Az.
02 Oct ? 01:23:05 23° N 01:23:05 23° N 01:26:18 10° NNE visible
02 Oct ? 03:02:27 14° NW 03:05:30 20° N 03:09:30 10° NE visible
02 Oct ? 04:44:19 10° NNW 04:49:19 30° NNE 04:54:00 10° E visible
02 Oct ? 06:26:29 10° NW 06:32:06 88° SW 06:37:11 10° SE visible
03 Oct ? 00:34:14 19° NNE 00:34:14 19° NNE 00:36:00 10° NNE visible
03 Oct ? 02:13:36 19° NNW 02:14:34 20° N 02:18:40 10° NE visible
03 Oct ? 03:53:57 10° NW 03:58:33 24° NNE 04:02:54 10° ENE visible
03 Oct ? 05:36:13 10° NW 05:41:46 59° NE 05:46:51 10° ESE visible
03 Oct ? 23:45:25 12° NNE 23:45:25 12° NNE 23:45:47 10° NE visible
04 Oct ? 01:24:48 21° N 01:24:48 21° N 01:28:03 10° NE visible
04 Oct ? 03:04:11 13° NNW 03:07:41 21° N 03:11:46 10° ENE visible
04 Oct ? 04:45:59 10° NW 04:51:16 40° NE 04:56:10 10° ESE visible
04 Oct ? 06:28:13 10° NW 06:33:36 56° WSW 06:38:31 10° SSE visible
05 Oct ? 00:36:07 17° NNE 00:36:07 17° NNE 00:37:38 10° NNE visible
05 Oct ? 02:15:30 18° NNW 02:16:46 20° N 02:20:44 10° NE visible
05 Oct ? 03:55:42 10° NNW 04:00:37 29° NNE 04:05:13 10° E visible
05 Oct ? 05:37:52 10° NW 05:43:27 87° NE 05:48:32 10° SE visible
05 Oct ? 20:14:07 10° SSE 20:14:25 11° SSE 20:14:25 11° SSE visible
05 Oct ? 21:53:32 10° SSW 21:53:59 12° SSW 21:53:59 12° SSW visible
06 Oct ? 01:27:01 19° N 01:27:01 19° N 01:29:55 10° NE visible
06 Oct ? 03:06:25 14° NNW 03:09:49 23° NNE 03:14:06 10° ENE visible
06 Oct ? 04:47:36 10° NW 04:53:06 55° NE 04:58:07 10° ESE visible
06 Oct ? 06:30:05 10° NW 06:34:58 35° WSW 06:39:27 10° S visible
06 Oct ? 19:27:42 10° ESE 19:28:11 10° ESE 19:28:11 10° ESE visible
06 Oct ? 21:03:39 10° SSW 21:07:44 40° SSE 21:07:44 40° SSE visible
06 Oct ? 22:45:49 10° WSW 22:59:24 - NE 22:47:17 18° WSW visible
07 Oct ? 00:38:50 12° NNE 00:38:50 12° NNE 00:39:21 10° NE visible
07 Oct ? 02:18:16 20° N 02:18:57 20° N 02:22:58 10° ENE visible
07 Oct ? 03:57:43 12° NNW 04:02:34 38° NE 04:07:23 10° ESE visible
07 Oct ? 05:39:34 10° NW 05:44:58 61° WSW 05:49:53 10° SSE visible
07 Oct ? 20:14:18 10° S 20:19:21 30° ESE 20:21:09 25° E visible
07 Oct ? 21:55:10 10° SW 22:00:40 68° W 22:00:40 68° W visible
07 Oct ? 23:39:08 10° W 23:51:11 - NE 23:40:10 14° WNW visible
08 Oct ? 01:30:39 14° NE 01:30:39 14° NE 01:31:58 10° NE visible
08 Oct ? 03:10:08 24° N 03:11:53 28° NNE 03:16:25 10° E visible
08 Oct ? 04:49:38 12° NW 04:54:47 82° NE 04:59:50 10° SE visible
08 Oct ? 06:32:14 10° WNW 06:36:09 21° WSW 06:39:52 10° SSW visible
08 Oct ? 19:25:46 10° SE 19:29:32 18° ESE 19:33:19 10° ENE visible
08 Oct ? 21:04:54 10° SSW 21:10:49 76° SE 21:13:27 34° NE visible
08 Oct ? 22:48:00 10° W 22:52:55 35° NW 22:52:55 35° NW visible
09 Oct?00:43:40NE00:43:40NE00:32:22WNWvisible
09 Oct ? 02:23:12 18° NE 02:23:12 18° NE 02:25:18 10° ENE visible
09 Oct ? 04:02:44 38° N 04:04:24 52° NE 04:09:23 10° ESE visible
09 Oct ? 05:42:16 14° NW 05:46:20 37° WSW 05:50:52 10° S visible
09 Oct ? 20:15:05 10° S 20:20:42 47° ESE 20:25:37 13° NE visible
09 Oct ? 21:57:06 10° WSW 22:02:51 50° NW 22:05:03 34° NNE visible
09 Oct ? 23:41:36 10° WNW 23:44:27 20° NW 23:44:27 20° NW visible
10 Oct?01:36:44ENE01:36:44ENE01:23:52NWvisible
10 Oct ? 03:16:17 24° E 03:16:17 24° E 03:18:36 10° E visible
10 Oct ? 04:55:50 61° W 04:56:19 65° WSW 05:01:14 10° SSE visible
10 Oct ? 06:35:23 10° W 06:37:13 12° WSW 06:39:12 10° SW visible
10 Oct ? 19:25:49 10° SSE 19:30:45 28° ESE 19:35:37 10° NE visible
10 Oct ? 21:06:29 10° SW 21:12:26 75° NW 21:16:42 19° NE visible
10 Oct ? 22:50:21 10° W 22:55:23 28° NNW 22:56:06 27° NNW visible
11 Oct ? 00:35:11 10° NW 00:35:30 11° NW 00:35:30 11° NW visible
11 Oct ? 04:09:33 21° SE 04:09:33 21° SE 04:11:07 10° SE visible
11 Oct ? 05:49:06 20° SW 05:49:06 20° SW 05:51:22 10° SSW visible
11 Oct ? 20:16:16 10° SSW 20:22:10 71° SE 20:27:57 10° NE visible
11 Oct ? 21:59:14 10° W 22:04:42 37° NW 22:07:29 24° NNE visible
11 Oct ? 23:44:04 10° WNW 23:46:52 19° NNW 23:46:52 19° NNW visible
